Zurück zum Katalog

CZ-6A DEB

AktivPO
NORAD 60878·DEBRIS·🇨🇳 China

Gestartet Aug 6, 2024 von Taiyuan Satellite Launch Center

Loading…

Nächste Überflüge (nächste 24 Stunden)

TLE

AktuellSource: Space-Track

Epoche: Sep 14, 2026, 10:32 UTC

1 60878U 24140KH  26257.43903018  .00036664  00000-0  15627-2 0  9998
2 60878  89.0548 260.7969 0068847 132.9707 227.7340 15.20612919113125

Verfolge CZ-6A DEB in Echtzeit mit AllMySat

Download on the App Store